This is the latest recevied weather packets stored in our database for station/object DL0BB-10. If no packets are shown the sender has not sent any weather packets the latest 10 day(s).
| Time | Temp. | Humidity | Pressure | Rain* | Wind** | Luminosity | Snow |
|---|---|---|---|---|---|---|---|
| 1788098383 | 26.67° C | 41% | 1015.6 hPa | - | - | - | - |
| 1788097483 | 26.67° C | 41% | 1015.6 hPa | - | - | - | - |
| 1788096583 | 27.22° C | 40% | 1015.8 hPa | - | - | - | - |
| 1788095683 | 27.22° C | 40% | 1016 hPa | - | - | - | - |
| 1788094783 | 26.11° C | 41% | 1016 hPa | - | - | - | - |
| 1788093883 | 26.67° C | 40% | 1016.3 hPa | - | - | - | - |
| 1788092983 | 26.67° C | 39% | 1016.3 hPa | - | - | - | - |
| 1788092083 | 26.67° C | 40% | 1016.5 hPa | - | - | - | - |
| 1788091183 | 26.11° C | 41% | 1016.4 hPa | - | - | - | - |
| 1788090283 | 26.11° C | 40% | 1016.5 hPa | - | - | - | - |
| 1788089382 | 26.67° C | 39% | 1016.7 hPa | - | - | - | - |
| 1788088482 | 26.11° C | 41% | 1016.8 hPa | - | - | - | - |
| 1788087582 | 25.56° C | 41% | 1017 hPa | - | - | - | - |
| 1788086681 | 26.11° C | 40% | 1017.1 hPa | - | - | - | - |
| 1788085781 | 26.67° C | 39% | 1017.1 hPa | - | - | - | - |
| 1788084881 | 25.56° C | 41% | 1017 hPa | - | - | - | - |
| 1788083981 | 25.56° C | 40% | 1017.1 hPa | - | - | - | - |
| 1788083081 | 26.11° C | 39% | 1017 hPa | - | - | - | - |
| 1788082181 | 26.67° C | 38% | 1017.2 hPa | - | - | - | - |
| 1788081281 | 25.56° C | 40% | 1017.1 hPa | - | - | - | - |
| 1788080379 | 25.56° C | 40% | 1017.2 hPa | - | - | - | - |
| 1788079482 | 26.11° C | 39% | 1017.2 hPa | - | - | - | - |
| 1788078581 | 26.11° C | 39% | 1017.2 hPa | - | - | - | - |
| 1788077681 | 25° C | 41% | 1017.2 hPa | - | - | - | - |
| 1788076781 | 25.56° C | 40% | 1017.2 hPa | - | - | - | - |
* Rain since midnight (hover to see other rain measurements)
** Current wind speed in m/s (hover to see current wind gust speed)